EW3804 Weather Reports


time (UTC)temp
C
wind
direction
speed
KPH
gust
KPH
rain 1hr
cm
rain 24hr
cm
rain mn
cm
humidity
%
barometer
mb
20260506081522 23 114 0.0 6.4 0.00 0.00 0.00 92 1000.3
20260506073020 23 147 0.0 0.0 0.00 0.00 0.00 91 1000.6
20260506071519 23 174 0.0 0.0 0.00 0.00 0.00 91 1000.7
20260506061516 23 178 0.0 3.2 0.00 0.00 0.00 92 1000.5
20260506044503 23 157 0.0 0.0 0.00 0.00 0.00 91 999.8
20260506043006 23 153 0.0 0.0 0.00 0.00 0.00 90 999.9
20260506041502 24 150 0.0 4.8 0.00 0.00 0.00 89 999.9
20260506040003 24 147 4.8 12.9 0.00 0.00 0.00 89 999.8
20260506034600 24 83 0.0 9.7 0.00 0.00 0.00 88 999.4
20260506033110 24 160 0.0 6.4 0.00 0.00 0.00 88 999.3
20260506031603 24 170 0.0 6.4 0.00 0.00 0.00 87 999.2
20260506030113 24 150 0.0 3.2 0.00 0.00 0.00 87 998.6
20260506024558 25 134 0.0 0.0 0.00 0.00 0.00 86 998.4
20260506023057 25 149 0.0 0.0 0.00 0.00 0.00 85 998.2
20260506021603 25 117 0.0 0.0 0.00 0.00 0.00 85 997.9
20260506020056 25 143 0.0 0.0 0.00 0.00 0.00 84 997.9
20260506014601 25 135 0.0 0.0 0.00 0.00 0.00 83 997.7
20260506013055 25 164 0.0 6.4 0.00 0.00 0.00 82 997.5
20260506011558 26 130 0.0 3.2 0.00 0.00 0.00 81 997.5
20260506010058 26 158 0.0 6.4 0.00 0.00 0.00 80 997.4
20260506004624 26 141 0.0 6.4 0.00 0.00 0.00 78 997.3
20260506003052 27 161 0.0 8.0 0.00 0.00 0.00 76 997.2
20260506001552 28 172 0.0 0.0 0.00 0.00 0.00 74 997.4
20260506000051 28 122 0.0 6.4 0.00 0.00 0.00 74 997.5
20260505234611 28 175 0.0 3.2 0.00 0.00 0.00 73 997.3
20260505233049 28 159 0.0 6.4 0.00 0.00 0.00 72 997.2
20260505231550 28 213 0.0 11.3 0.00 0.00 0.00 73 997.2
20260505230051 28 101 0.0 11.3 0.00 0.00 0.00 71 997.1
20260505224550 28 159 0.0 0.0 0.00 0.00 0.00 71 997.2
20260505223059 28 155 0.0 6.4 0.00 0.00 0.00 71 997.2
20260505221558 28 98 0.0 0.0 0.00 0.00 0.00 71 997.0
20260505220057 28 155 0.0 6.4 0.00 0.00 0.00 72 997.0
20260505214556 29 139 0.0 4.8 0.00 0.00 0.00 70 997.1
20260505213045 29 140 0.0 14.5 0.00 0.00 0.00 69 997.4
20260505211540 29 167 0.0 6.4 0.00 0.00 0.00 70 997.5
20260505210038 29 186 0.0 12.9 0.00 0.00 0.00 69 997.7
20260505204535 29 205 3.2 14.5 0.00 0.00 0.00 69 998.0
20260505203036 29 216 1.6 16.1 0.00 0.00 0.00 68 998.1
20260505201533 29 178 0.0 4.8 0.00 0.00 0.00 69 998.0
20260505200036 29 150 0.0 14.5 0.00 0.00 0.00 69 998.2
20260505194530 29 191 0.0 9.7 0.00 0.00 0.00 69 998.4
20260505193027 28 151 0.0 9.7 0.00 0.00 0.00 70 998.5
20260505191526 28 193 0.0 0.0 0.00 0.00 0.00 71 998.5
20260505190024 28 135 0.0 0.0 0.00 0.00 0.00 71 998.5
20260505184527 28 184 0.0 0.0 0.00 0.00 0.00 71 998.6
20260505183039 28 186 0.0 0.0 0.00 0.00 0.00 72 998.8
20260505181522 27 185 0.0 0.0 0.00 0.00 0.00 73 999.3
20260505180019 27 110 0.0 0.0 0.00 0.00 0.00 72 999.3
20260505174517 27 181 0.0 6.4 0.00 0.00 0.00 73 999.5
20260505173021 27 157 0.0 0.0 0.00 0.00 0.00 74 999.8
20260505171516 27 152 0.0 9.7 0.00 0.00 0.00 73 999.8
20260505170012 26 148 0.0 0.0 0.00 0.00 0.00 74 999.8
20260505164511 26 181 0.0 11.3 0.00 0.00 0.00 75 999.7
20260505163009 26 169 0.0 0.0 0.00 0.00 0.00 78 999.8
20260505161506 25 224 0.0 0.0 0.00 0.00 0.00 77 999.8
20260505153056 23 177 0.0 0.0 0.00 0.00 0.00 84 999.9
20260505151558 23 177 0.0 0.0 0.00 0.00 0.00 84 999.9
20260505124538 21 170 0.0 0.0 0.00 0.00 0.00 90 999.0
20260505123030 -17 0.0 0.0 0.00 0.00 0.00 998.8
20260505121526 -17 0.0 0.0 0.00 0.00 0.00 998.6
20260505120023 -17 0.0 0.0 0.00 0.00 0.00 998.4
20260505114517 -17 0.0 0.0 0.00 0.00 0.00 998.4
20260505113012 -17 0.0 0.0 0.00 0.00 0.00 998.2
20260505111508 -17 0.0 0.0 0.00 0.00 0.00 998.3
20260505101551 -17 0.0 0.0 0.00 0.00 0.00 998.4
20260505100048 -17 0.0 0.0 0.00 0.00 0.00 998.5
20260505094543 21 130 0.0 0.0 0.00 0.00 0.00 89 998.5
20260505093043 21 212 0.0 0.0 0.00 0.00 0.00 89 998.5
20260505091542 21 147 0.0 0.0 0.00 0.00 0.00 89 998.6
20260505090042 21 165 0.0 0.0 0.00 0.00 0.00 89 998.7
20260505084547 21 177 0.0 0.0 0.00 0.00 0.00 89 998.6
20260505083038 21 129 0.0 0.0 0.00 0.00 0.00 89 998.7